User: anonymous   Login
Location: Unspecified
(0.0000°N, 0.0000°E)
Time: 08:25:46
(UTC+00:00)
Language:

Tiros 1 - Orbit

View from above orbital plane
View from above orbital plane
View from above satellite
View from above satellite

Ground track
Ground track

The orbit data is extracted from the following two-line orbital elements,

1    29U 60002B   18173.94664609 -.00000123 +00000-0 +12697-4 0  9999
2    29 048.3790 132.2319 0024137 007.3090 352.8169 14.74251075111497
Epoch (UTC): 22 June 2018 22:43:10
Eccentricity: 0.0024137
inclination: 48.3790°
perigee height: 630 km
apogee height: 664 km
right ascension of ascending node: 132.2319°
argument of perigee: 7.3090°
revolutions per day: 14.74251075
mean anomaly at epoch: 352.8169°
orbit number at epoch: 11149

The dashed part of the orbit path shows where the satellite is in the earth's shadow,  

DLR